CPA950 VHHH-ZGGG

Flight info

Callsign CPA950
Flight time 0h 27m
Altitude 13800
Route BEKOL/K0746S0420 A461 IDUMA IDUMA9
Aircraft B77W/H-SDE1E2E3FGHIJ2J3J4J5M1RWXY/LB1D1

Departure

Time 2026-04-30 11:37
Airport Hong Kong International Airport (VHHH)

Arrival

Time 2026-04-30 12:04
Airport Guangzhou Baiyun International Airport (ZGGG)
Time Latitude Longitude Altitude Speed Heading
2026-04-30 11:04 22.31253 113.92845 36 ft 0 kts 341°
2026-04-30 11:27 22.31246 113.92848 37 ft 4 kts 341°
2026-04-30 11:27 22.31220 113.92857 36 ft 4 kts 341°
2026-04-30 11:27 22.31199 113.92865 34 ft 4 kts 336°
2026-04-30 11:28 22.31178 113.92906 35 ft 3 kts 251°
2026-04-30 11:28 22.31186 113.92933 33 ft 4 kts 251°
2026-04-30 11:28 22.31190 113.92946 34 ft 0 kts 251°
2026-04-30 11:31 22.31176 113.92910 35 ft 13 kts 239°
2026-04-30 11:31 22.31045 113.92826 37 ft 29 kts 206°
2026-04-30 11:32 22.30856 113.92724 37 ft 25 kts 217°
2026-04-30 11:32 22.30786 113.92556 37 ft 27 kts 250°
2026-04-30 11:32 22.30710 113.92322 37 ft 37 kts 250°
2026-04-30 11:33 22.30548 113.91816 37 ft 34 kts 251°
2026-04-30 11:33 22.30471 113.91581 37 ft 33 kts 250°
2026-04-30 11:33 22.30400 113.91355 37 ft 31 kts 251°
2026-04-30 11:33 22.30328 113.91137 37 ft 30 kts 251°
2026-04-30 11:34 22.30261 113.90928 37 ft 30 kts 251°
2026-04-30 11:34 22.30192 113.90712 37 ft 30 kts 251°
2026-04-30 11:34 22.30124 113.90502 37 ft 30 kts 251°
2026-04-30 11:34 22.30055 113.90287 37 ft 30 kts 251°
2026-04-30 11:35 22.29988 113.90077 37 ft 30 kts 251°
2026-04-30 11:35 22.29920 113.89864 37 ft 30 kts 250°
2026-04-30 11:35 22.29835 113.89733 37 ft 19 kts 177°
2026-04-30 11:35 22.29710 113.89777 37 ft 19 kts 161°
2026-04-30 11:36 22.29647 113.89885 35 ft 20 kts 73°
2026-04-30 11:36 22.29665 113.89944 35 ft 0 kts 71°
2026-04-30 11:36 22.29680 113.89989 35 ft 25 kts 71°
2026-04-30 11:36 22.29840 113.90477 36 ft 112 kts 72°
2026-04-30 11:37 22.30179 113.91527 40 ft 180 kts 70°
2026-04-30 11:37 22.30605 113.92852 690 ft 189 kts 69°
2026-04-30 11:37 22.31032 113.94165 1666 ft 180 kts 70°
2026-04-30 11:37 22.31462 113.95478 2256 ft 197 kts 70°
2026-04-30 11:38 22.31946 113.96974 2580 ft 225 kts 70°
2026-04-30 11:38 22.32477 113.98634 3155 ft 239 kts 70°
2026-04-30 11:38 22.33037 114.00371 3817 ft 253 kts 69°
2026-04-30 11:38 22.33620 114.02198 4565 ft 261 kts 70°
2026-04-30 11:39 22.33857 114.04166 5285 ft 272 kts 96°
2026-04-30 11:39 22.33303 114.06123 6094 ft 277 kts 121°
2026-04-30 11:39 22.32027 114.07695 6738 ft 283 kts 146°
2026-04-30 11:39 22.30257 114.08605 7374 ft 286 kts 168°
2026-04-30 11:40 22.28289 114.08795 7725 ft 282 kts 188°
2026-04-30 11:40 22.26318 114.08741 8183 ft 292 kts 171°
2026-04-30 11:40 22.24475 114.09702 8980 ft 301 kts 142°
2026-04-30 11:40 22.23138 114.11459 9845 ft 309 kts 120°
2026-04-30 11:41 22.22479 114.13697 10469 ft 322 kts 96°
2026-04-30 11:41 22.22652 114.16191 10718 ft 348 kts 73°
2026-04-30 11:41 22.23714 114.18626 10922 ft 372 kts 54°
2026-04-30 11:41 22.25448 114.20778 11116 ft 390 kts 36°
2026-04-30 11:42 22.27760 114.22357 11758 ft 397 kts 26°
2026-04-30 11:42 22.30214 114.23760 12626 ft 401 kts 25°
2026-04-30 11:42 22.32673 114.25217 13528 ft 404 kts 27°
2026-04-30 11:42 22.35117 114.26798 13848 ft 418 kts 29°
2026-04-30 11:43 22.37671 114.28295 13809 ft 417 kts 16°
2026-04-30 11:43 22.40498 114.28770 13827 ft 411 kts 353°
2026-04-30 11:43 22.43238 114.28039 13813 ft 404 kts 332°
2026-04-30 11:43 22.45591 114.26427 13832 ft 399 kts 319°
2026-04-30 11:44 22.47597 114.24376 13813 ft 396 kts 308°
2026-04-30 11:44 22.49158 114.21939 13816 ft 394 kts 300°
2026-04-30 11:44 22.50609 114.19424 13814 ft 395 kts 301°
2026-04-30 11:44 22.52097 114.16922 13813 ft 394 kts 302°
2026-04-30 11:45 22.53821 114.14612 13810 ft 398 kts 313°
2026-04-30 11:45 22.55946 114.12678 13816 ft 401 kts 322°
2026-04-30 11:45 22.58345 114.11111 13813 ft 405 kts 331°
2026-04-30 11:45 22.60869 114.09837 13808 ft 406 kts 333°
2026-04-30 11:46 22.63434 114.08563 13816 ft 406 kts 333°
2026-04-30 11:46 22.66003 114.07280 13819 ft 407 kts 332°
2026-04-30 11:46 22.68566 114.05987 13825 ft 407 kts 332°
2026-04-30 11:46 22.71130 114.04683 13819 ft 407 kts 332°
2026-04-30 11:47 22.73690 114.03374 13811 ft 407 kts 332°
2026-04-30 11:47 22.76247 114.02062 13809 ft 406 kts 332°
2026-04-30 11:47 22.78799 114.00751 13810 ft 406 kts 332°
2026-04-30 11:47 22.81349 113.99441 13821 ft 405 kts 332°
2026-04-30 11:48 22.83899 113.98131 13813 ft 405 kts 332°
2026-04-30 11:48 22.86332 113.96675 13803 ft 398 kts 320°
2026-04-30 11:48 22.88191 113.94471 13824 ft 399 kts 300°
2026-04-30 11:48 22.89352 113.91751 13821 ft 398 kts 287°
2026-04-30 11:49 22.89839 113.88825 13802 ft 392 kts 272°
2026-04-30 11:49 22.89889 113.85875 13816 ft 391 kts 270°
2026-04-30 11:49 22.89898 113.82920 13820 ft 392 kts 270°
2026-04-30 11:49 22.89904 113.79959 13818 ft 393 kts 270°
2026-04-30 11:50 22.89918 113.76989 13810 ft 394 kts 270°
2026-04-30 11:50 22.89943 113.74010 13819 ft 396 kts 270°
2026-04-30 11:50 22.89975 113.71022 13816 ft 397 kts 270°
2026-04-30 11:50 22.90013 113.68040 13800 ft 391 kts 270°
2026-04-30 11:51 22.90053 113.65133 13603 ft 383 kts 271°
2026-04-30 11:51 22.90093 113.62243 13054 ft 382 kts 271°
2026-04-30 11:51 22.90133 113.59374 12513 ft 379 kts 271°
2026-04-30 11:51 22.90173 113.56532 11960 ft 375 kts 271°
2026-04-30 11:52 22.90212 113.53713 11413 ft 372 kts 271°
2026-04-30 11:52 22.90249 113.50920 11052 ft 365 kts 271°
2026-04-30 11:52 22.90285 113.48224 10897 ft 352 kts 271°
2026-04-30 11:52 22.90319 113.45615 10707 ft 341 kts 271°
2026-04-30 11:53 22.90352 113.43082 10549 ft 330 kts 271°
2026-04-30 11:53 22.90383 113.40635 10409 ft 320 kts 270°
2026-04-30 11:53 22.90413 113.38260 10274 ft 310 kts 271°
2026-04-30 11:53 22.90442 113.35960 10147 ft 300 kts 271°
2026-04-30 11:54 22.90470 113.33731 10021 ft 291 kts 271°
2026-04-30 11:54 22.90496 113.31557 9734 ft 288 kts 271°
2026-04-30 11:54 22.90568 113.29398 9389 ft 285 kts 277°
2026-04-30 11:54 22.90981 113.27304 9039 ft 283 kts 284°
2026-04-30 11:55 22.91491 113.25278 8717 ft 282 kts 285°
2026-04-30 11:55 22.92023 113.23209 8366 ft 278 kts 289°
2026-04-30 11:55 22.93027 113.21452 8035 ft 276 kts 316°
2026-04-30 11:55 22.94615 113.20358 7700 ft 277 kts 339°
2026-04-30 11:56 22.96510 113.19968 7329 ft 280 kts
2026-04-30 11:56 22.98434 113.20298 6970 ft 281 kts 12°
2026-04-30 11:56 23.00331 113.20851 6585 ft 283 kts 14°
2026-04-30 11:56 23.02211 113.21406 6192 ft 276 kts 13°
2026-04-30 11:57 23.04040 113.21917 5818 ft 269 kts 14°
2026-04-30 11:57 23.05850 113.22408 5472 ft 268 kts 14°
2026-04-30 11:57 23.07663 113.22896 5126 ft 269 kts 14°
2026-04-30 11:57 23.09482 113.23383 4804 ft 269 kts 15°
2026-04-30 11:58 23.11261 113.23861 4487 ft 258 kts 15°
2026-04-30 11:58 23.12969 113.24319 4191 ft 247 kts 15°
2026-04-30 11:58 23.14597 113.24757 3924 ft 234 kts 15°
2026-04-30 11:58 23.16138 113.25169 3679 ft 222 kts 15°
2026-04-30 11:59 23.17588 113.25560 3448 ft 208 kts 15°
2026-04-30 11:59 23.18934 113.25920 3294 ft 191 kts 16°
2026-04-30 11:59 23.20179 113.26256 3096 ft 174 kts 15°
2026-04-30 11:59 23.21302 113.26557 3051 ft 164 kts 16°
2026-04-30 12:00 23.22414 113.26858 2900 ft 167 kts 16°
2026-04-30 12:00 23.23506 113.27151 2704 ft 155 kts 16°
2026-04-30 12:00 23.24514 113.27422 2499 ft 144 kts 16°
2026-04-30 12:00 23.25490 113.27686 2338 ft 145 kts 16°
2026-04-30 12:01 23.26467 113.27949 2140 ft 144 kts 15°
2026-04-30 12:01 23.27435 113.28206 1950 ft 144 kts 15°
2026-04-30 12:01 23.28407 113.28470 1759 ft 143 kts 15°
2026-04-30 12:01 23.29370 113.28725 1559 ft 142 kts 15°
2026-04-30 12:02 23.30328 113.28985 1365 ft 142 kts 15°
2026-04-30 12:02 23.31281 113.29243 1187 ft 141 kts 14°
2026-04-30 12:02 23.32240 113.29499 1015 ft 142 kts 14°
2026-04-30 12:02 23.33201 113.29758 807 ft 143 kts 13°
2026-04-30 12:03 23.34169 113.30023 647 ft 144 kts 13°
2026-04-30 12:03 23.36098 113.30540 285 ft 143 kts 13°
2026-04-30 12:03 23.37068 113.30802 96 ft 145 kts 13°
2026-04-30 12:04 23.38005 113.31051 59 ft 126 kts 14°
2026-04-30 12:04 23.38673 113.31231 56 ft 72 kts 14°
2026-04-30 12:04 23.39012 113.31297 53 ft 44 kts 356°
2026-04-30 12:04 23.39243 113.31238 54 ft 28 kts 345°
2026-04-30 12:05 23.39464 113.31246 56 ft 41 kts 14°
2026-04-30 12:05 23.39688 113.31305 56 ft 28 kts 13°
2026-04-30 12:05 23.39752 113.31246 58 ft 13 kts 284°
2026-04-30 12:05 23.39775 113.31147 57 ft 14 kts 284°
2026-04-30 12:06 23.39798 113.31044 60 ft 14 kts 283°
2026-04-30 12:06 23.39807 113.30945 58 ft 10 kts 235°
2026-04-30 12:06 23.39741 113.30918 55 ft 10 kts 203°
2026-04-30 12:06 23.39728 113.30848 57 ft 11 kts 283°
2026-04-30 12:07 23.39746 113.30770 58 ft 11 kts 283°
2026-04-30 12:07 23.39707 113.30712 56 ft 10 kts 208°
2026-04-30 12:07 23.39698 113.30641 56 ft 9 kts 287°
2026-04-30 12:07 23.39708 113.30607 59 ft 1 kts 285°
2026-04-30 12:08 23.39710 113.30599 57 ft 0 kts 285°